User: anonymous
Location: Brno
(49.2000°N, 16.6330°E)
Time: 11:48:12
(UTC+02:00)
Language:

BREEZE M DEB (TANK) - Orbit

View from above orbital plane
View from above orbital plane
View from above satellite
View from above satellite

Ground track
Ground track

The orbit data is extracted from the following two-line orbital elements,

1 28359U 04022B   14272.68767998  .00004174  00000-0  63539-3 0  2696
2 28359 049.5294 310.7419 4707409 109.9336 318.1479 06.11804572224105
Epoch (UTC): 29 September 2014 16:30:15
Eccentricity: 0.4707409
inclination: 49.5294°
perigee height: 305 km
apogee height: 12194 km
right ascension of ascending node: 310.7419°
argument of perigee: 109.9336°
revolutions per day: 6.11804572
mean anomaly at epoch: 318.1479°
orbit number at epoch: 22410

The dashed part of the orbit path shows where the satellite is in the earth's shadow,  

DLR